[Date Prev][Date Next][Thread Prev][Thread Next] - [Date Index][Thread Index][Author Index]

2 Line ISS Keps 11-14



ISS
1 25544U 98067A   05318.01033005  .00014681  00000-0  11334-3 0  7475
2 25544 051.6449 212.9957 0008309 278.9695 211.6362 15.72168442399262
----
Via the sarex mailing list at AMSAT.ORG courtesy of AMSAT-NA.
To unsubscribe, send "unsubscribe sarex" to Majordomo@amsat.org



AMSAT Top AMSAT Home